EW9318 Weather Reports


time (UTC)temp
F
wind
direction
speed
knots
gust
knots
rain 1hr
in
rain 24hr
in
rain mn
in
humidity
%
barometer
mb
20260505102037 49 251 7.0 9.6 0.00 0.01 0.00 66 1002.4
20260505101517 49 260 5.2 7.8 0.00 0.01 0.00 66 1002.0
20260505101018 49 263 5.2 9.6 0.00 0.01 0.00 65 1002.1
20260505100557 50 264 6.1 9.6 0.00 0.01 0.00 64 1002.1
20260505100017 50 271 5.2 9.6 0.00 0.01 0.00 64 1001.9
20260505095517 50 272 5.2 9.6 0.00 0.01 0.00 63 1002.1
20260505095017 50 261 6.1 9.6 0.00 0.01 0.00 64 1002.3
20260505094518 50 261 6.1 9.6 0.00 0.01 0.00 64 1002.2
20260505094017 50 259 4.3 8.7 0.00 0.01 0.00 65 1001.9
20260505093517 50 261 5.2 8.7 0.00 0.01 0.00 64 1001.8
20260505093018 51 260 4.3 7.0 0.00 0.01 0.00 64 1001.6
20260505092517 51 267 4.3 7.0 0.00 0.01 0.00 64 1001.6
20260505092017 51 284 2.6 7.0 0.00 0.01 0.00 62 1001.3
20260505091537 51 302 1.7 7.0 0.00 0.01 0.00 59 1000.6
20260505091017 51 261 3.5 9.6 0.00 0.01 0.00 59 1001.7
20260505090518 51 281 5.2 9.6 0.00 0.01 0.00 58 1001.7
20260505090017 52 285 3.5 9.6 0.00 0.01 0.00 58 1001.3
20260505085517 52 292 4.3 8.7 0.00 0.01 0.00 58 1001.2
20260505085017 52 290 5.2 8.7 0.00 0.01 0.00 58 1001.2
20260505084518 52 294 4.3 9.6 0.00 0.01 0.00 58 1000.6
20260505084017 52 284 4.3 9.6 0.00 0.01 0.00 58 1000.8
20260505083518 52 295 5.2 8.7 0.00 0.01 0.00 59 1001.1
20260505083017 52 288 6.1 8.7 0.00 0.01 0.00 61 1001.1
20260505082518 52 283 4.3 8.7 0.00 0.01 0.00 61 1000.8
20260505082017 52 284 2.6 6.1 0.00 0.01 0.00 61 1000.2
20260505081517 53 285 2.6 7.8 0.00 0.01 0.00 62 1000.3
20260505081038 53 286 4.3 7.8 0.00 0.01 0.00 61 1000.4
20260505080517 53 293 4.3 9.6 0.00 0.01 0.00 61 1000.6
20260505080016 53 303 6.1 9.6 0.00 0.01 0.00 60 1000.2
20260505075517 53 297 3.5 7.8 0.00 0.01 0.00 61 1000.1
20260505075038 53 305 2.6 7.8 0.00 0.01 0.00 61 1000.1
20260505074537 54 277 2.6 7.0 0.00 0.01 0.00 61 1000.2
20260505074018 54 285 3.5 7.8 0.00 0.01 0.00 61 999.8
20260505073516 54 292 4.3 9.6 0.00 0.01 0.00 60 999.9
20260505073017 54 301 7.0 10.4 0.00 0.01 0.00 60 1000.2
20260505072516 54 288 6.1 11.3 0.00 0.01 0.00 61 1000.2
20260505072017 54 281 5.2 11.3 0.00 0.01 0.00 60 1000.0
20260505071517 55 287 4.3 7.8 0.00 0.01 0.00 64 1000.3
20260505071017 55 274 3.5 11.3 0.00 0.01 0.00 64 1000.2
20260505070516 55 274 7.0 11.3 0.00 0.01 0.00 64 1000.6
20260505070018 55 277 6.1 9.6 0.00 0.01 0.00 63 1000.6
20260505065516 55 287 4.3 9.6 0.00 0.01 0.00 64 1000.2
20260505065016 56 291 6.1 11.3 0.00 0.01 0.00 65 999.9
20260505064516 56 269 5.2 11.3 0.00 0.01 0.00 66 999.9
20260505064037 56 260 5.2 7.8 0.00 0.01 0.00 66 999.8
20260505063516 56 261 4.3 11.3 0.00 0.01 0.00 65 999.4
20260505063017 56 265 6.1 11.3 0.00 0.01 0.00 65 999.6
20260505062517 56 272 4.3 7.8 0.00 0.01 0.00 67 999.9
20260505062016 56 280 4.3 7.8 0.00 0.01 0.00 70 999.9
20260505061517 57 264 3.5 7.8 0.00 0.01 0.00 71 999.8
20260505061016 57 272 4.3 7.0 0.00 0.01 0.00 71 999.8
20260505060536 57 280 4.3 9.6 0.00 0.01 0.00 71 999.8
20260505060057 57 281 4.3 9.6 0.00 0.01 0.00 72 999.7
20260505055518 57 271 5.2 10.4 0.00 0.01 0.00 72 999.4
20260505055018 57 271 6.1 10.4 0.00 0.01 0.00 72 999.3
20260505054518 58 266 5.2 10.4 0.00 0.01 0.00 72 999.0
20260505054016 58 275 6.1 13.9 0.00 0.01 0.00 72 999.1
20260505053516 59 274 7.0 13.9 0.00 0.01 0.00 72 999.0
20260505053018 59 276 7.0 13.0 0.00 0.01 0.00 72 998.9
20260505052516 59 274 6.1 11.3 0.00 0.01 0.00 75 998.7
20260505052016 59 275 6.1 11.3 0.00 0.01 0.00 76 998.7
20260505051517 58 274 5.2 9.6 0.00 0.01 0.00 78 998.7
20260505051016 58 262 6.1 10.4 0.00 0.01 0.00 80 998.6
20260505050516 58 253 5.2 10.4 0.00 0.01 0.00 81 998.5
20260505041516 59 175 1.7 5.2 0.01 0.01 0.00 79 997.9
20260505041016 59 195 2.6 6.1 0.01 0.01 0.00 78 998.0
20260505040516 60 180 2.6 7.8 0.01 0.01 0.00 77 997.9
20260505040016 60 180 2.6 7.8 0.01 0.01 0.01 76 998.1
20260505035515 60 179 4.3 7.8 0.01 0.01 0.01 74 998.1
20260505035017 61 227 3.5 8.7 0.01 0.01 0.01 72 998.3
20260505034537 61 306 4.3 8.7 0.00 0.00 0.00 72 998.8
20260505034017 61 278 4.3 7.8 0.00 0.00 0.00 72 998.8
20260505033518 61 234 3.5 7.0 0.00 0.00 0.00 70 998.3
20260505033017 61 251 3.5 9.6 0.00 0.00 0.00 70 998.2
20260505032517 61 229 4.3 9.6 0.00 0.00 0.00 70 998.0
20260505032017 61 207 2.6 7.8 0.00 0.00 0.00 70 997.8
20260505031538 61 202 3.5 8.7 0.00 0.00 0.00 69 997.7
20260505031017 61 206 5.2 9.6 0.00 0.00 0.00 69 997.6
20260505030517 61 184 4.3 12.2 0.00 0.00 0.00 68 997.5
20260505030018 61 176 4.3 12.2 0.00 0.00 0.00 68 997.4
20260505025516 62 189 5.2 12.2 0.00 0.00 0.00 67 997.4
20260505025017 62 197 4.3 9.6 0.00 0.00 0.00 67 997.2
20260505024516 62 198 4.3 9.6 0.00 0.00 0.00 67 997.1
20260505024017 62 200 4.3 10.4 0.00 0.00 0.00 67 997.0
20260505023518 62 205 5.2 11.3 0.00 0.00 0.00 67 997.1
20260505023017 63 201 5.2 13.9 0.00 0.00 0.00 67 997.2
20260505022516 63 201 6.1 15.6 0.00 0.00 0.00 67 997.3
20260505022016 64 213 5.2 17.4 0.00 0.00 0.00 66 997.4
20260505021517 64 223 7.8 17.4 0.00 0.00 0.00 65 997.7
20260505021017 64 214 7.8 16.5 0.00 0.00 0.00 65 997.6
20260505020518 64 233 7.8 16.5 0.00 0.00 0.00 64 997.7
20260505020016 65 232 7.8 19.1 0.00 0.00 0.00 63 997.6
20260505015516 65 231 11.3 19.1 0.00 0.00 0.00 63 997.4
20260505015057 65 210 9.6 19.1 0.00 0.00 0.00 63 997.0
20260505014537 65 207 7.8 15.6 0.00 0.00 0.00 64 997.0
20260505014016 66 216 7.8 18.2 0.00 0.00 0.00 64 996.8
20260505013536 66 225 10.4 18.2 0.00 0.00 0.00 64 996.6
20260505013017 66 224 7.8 19.1 0.00 0.00 0.00 64 996.5
20260505012517 66 217 9.6 20.9 0.00 0.00 0.00 65 996.4
20260505012016 67 207 7.0 20.9 0.00 0.00 0.00 66 996.4
20260505011517 67 206 6.1 14.8 0.00 0.00 0.00 64 996.4
20260505011016 67 193 7.0 14.8 0.00 0.00 0.00 63 996.2
20260505010516 68 210 7.0 14.8 0.00 0.00 0.00 62 996.2
20260505010016 68 210 8.7 14.8 0.00 0.00 0.00 61 996.1
20260505005516 68 186 8.7 15.6 0.00 0.00 0.00 61 996.0
20260505005017 68 213 7.8 16.5 0.00 0.00 0.00 60 996.1
20260505004517 68 192 7.8 16.5 0.00 0.00 0.00 59 996.3
20260505004017 69 190 7.0 19.1 0.00 0.00 0.00 58 996.4
20260505003516 69 202 7.8 19.1 0.00 0.00 0.00 56 996.6
20260505003016 70 205 7.8 17.4 0.00 0.00 0.00 53 996.5
20260505002516 70 204 9.6 19.1 0.00 0.00 0.00 52 996.5
20260505002016 70 220 8.7 19.1 0.00 0.00 0.00 50 996.3
20260505001517 71 220 11.3 17.4 0.00 0.00 0.00 48 996.1
20260505001016 71 209 8.7 18.2 0.00 0.00 0.00 48 996.0
20260505000516 71 224 11.3 19.1 0.00 0.00 0.00 48 996.0
20260505000056 72 231 11.3 19.1 0.00 0.00 0.00 47 996.1
20260504235536 72 244 12.2 26.9 0.00 0.00 0.00 46 996.1
20260504235016 73 240 12.2 26.9 0.00 0.00 0.00 39 996.1
20260504234516 73 227 7.8 13.0 0.00 0.00 0.00 38 996.1
20260504234017 73 211 5.2 12.2 0.00 0.00 0.00 39 996.1
20260504233516 73 217 3.5 9.6 0.00 0.00 0.00 39 996.0
20260504233016 73 231 5.2 9.6 0.00 0.00 0.00 38 996.0
20260504232516 73 231 6.1 10.4 0.00 0.00 0.00 38 996.1
20260504232016 73 232 6.1 12.2 0.00 0.00 0.00 37 996.1
20260504231518 73 226 7.0 12.2 0.00 0.00 0.00 37 996.2
20260504231016 73 240 7.0 13.0 0.00 0.00 0.00 37 996.3
20260504230518 73 226 7.8 13.0 0.00 0.00 0.00 37 996.3
20260504230016 74 234 7.8 15.6 0.00 0.00 0.00 37 996.4
20260504225516 74 240 9.6 15.6 0.00 0.00 0.00 36 996.4
20260504225016 74 229 8.7 15.6 0.00 0.00 0.00 36 996.6
20260504224536 74 228 7.8 13.0 0.00 0.00 0.00 37 996.6
20260504224016 74 230 7.0 11.3 0.00 0.00 0.00 37 996.7
20260504223517 74 243 7.0 13.0 0.00 0.00 0.00 37 996.8
20260504223016 74 249 7.0 14.8 0.00 0.00 0.00 36 996.8
20260504222516 74 244 9.6 14.8 0.00 0.00 0.00 36 996.9
20260504222016 74 252 9.6 17.4 0.00 0.00 0.00 37 996.9
20260504221536 74 250 12.2 19.1 0.00 0.00 0.00 36 996.9
20260504221016 74 259 9.6 19.1 0.00 0.00 0.00 36 996.9
20260504220516 74 237 11.3 19.1 0.00 0.00 0.00 36 997.0
20260504220016 74 234 10.4 19.1 0.00 0.00 0.00 37 997.0
20260504215536 74 237 8.7 18.2 0.00 0.00 0.00 37 997.0
20260504215016 74 248 11.3 18.2 0.00 0.00 0.00 37 997.1
20260504214516 74 251 8.7 16.5 0.00 0.00 0.00 37 997.1
20260504214016 74 260 10.4 19.1 0.00 0.00 0.00 35 997.2
20260504213517 74 247 12.2 19.1 0.00 0.00 0.00 37 997.3
20260504213016 74 238 11.3 20.0 0.00 0.00 0.00 36 997.4
20260504212536 74 242 12.2 20.0 0.00 0.00 0.00 35 997.5
20260504212016 73 239 12.2 23.5 0.00 0.00 0.00 37 997.5
20260504211016 73 245 13.9 26.9 0.00 0.00 0.00 37 997.7
20260504210516 74 249 12.2 19.1 0.00 0.00 0.00 36 997.8
20260504210016 74 240 8.7 23.5 0.00 0.00 0.00 38 997.9
20260504205637 74 243 12.2 23.5 0.00 0.00 0.00 37 998.0
20260504205016 74 242 9.6 20.0 0.00 0.00 0.00 38 998.1
20260504204516 73 257 13.0 26.1 0.00 0.00 0.00 37 998.1
20260504204016 73 243 15.6 26.1 0.00 0.00 0.00 36 998.2
20260504203516 74 263 14.8 26.9 0.00 0.00 0.00 34 998.1
20260504203036 74 268 15.6 30.4 0.00 0.00 0.00 34 998.3
20260504202517 74 246 15.6 30.4 0.00 0.00 0.00 34 998.4
20260504202017 74 252 12.2 23.5 0.00 0.00 0.00 33 998.5
20260504201516 74 235 13.0 22.6 0.00 0.00 0.00 34 998.5
20260504201016 74 245 12.2 25.2 0.00 0.00 0.00 34 998.4
20260504200516 73 249 15.6 25.2 0.00 0.00 0.00 33 998.4
20260504200036 74 247 12.2 20.0 0.00 0.00 0.00 34 998.4
20260504195516 74 230 12.2 19.1 0.00 0.00 0.00 32 998.5
20260504195056 74 227 13.0 19.1 0.00 0.00 0.00 32 998.5
20260504194516 74 241 11.3 20.9 0.00 0.00 0.00 32 998.5
20260504194016 74 251 12.2 20.9 0.00 0.00 0.00 33 998.7
20260504193517 74 237 12.2 19.1 0.00 0.00 0.00 32 998.6
20260504193016 74 233 8.7 23.5 0.00 0.00 0.00 34 998.6
20260504192516 74 233 12.2 24.3 0.00 0.00 0.00 32 998.8
20260504192017 73 227 13.9 24.3 0.00 0.00 0.00 31 998.8
20260504191537 73 240 13.9 21.7 0.00 0.00 0.00 34 998.8
20260504191016 73 235 11.3 21.7 0.00 0.00 0.00 35 998.8
20260504190537 73 240 14.8 21.7 0.00 0.00 0.00 33 998.8
20260504190016 74 235 12.2 21.7 0.00 0.00 0.00 32 998.8
20260504185519 74 212 10.4 21.7 0.00 0.00 0.00 34 998.8
20260504185017 74 238 13.0 21.7 0.00 0.00 0.00 32 998.8
20260504184516 73 241 12.2 21.7 0.00 0.00 0.00 30 998.8
20260504184017 74 223 10.4 22.6 0.00 0.00 0.00 29 998.9
20260504183516 73 232 13.9 22.6 0.00 0.00 0.00 29 999.0
20260504183017 74 235 13.0 25.2 0.00 0.00 0.00 29 999.0
20260504182516 74 210 11.3 25.2 0.00 0.00 0.00 31 999.0
20260504182015 74 202 9.6 20.0 0.00 0.00 0.00 32 999.0
20260504181516 73 205 10.4 20.9 0.00 0.00 0.00 31 999.0
20260504181015 73 210 9.6 20.9 0.00 0.00 0.00 32 999.1
20260504180537 72 239 11.3 19.1 0.00 0.00 0.00 31 999.1
20260504180016 73 225 11.3 18.2 0.00 0.00 0.00 30 999.2
20260504175516 73 233 11.3 18.2 0.00 0.00 0.00 30 999.2
20260504175015 73 218 9.6 19.1 0.00 0.00 0.00 33 999.2
20260504174517 72 230 11.3 20.0 0.00 0.00 0.00 31 999.3
20260504174016 73 218 10.4 24.3 0.00 0.00 0.00 31 999.4
20260504173516 72 220 12.2 24.3 0.00 0.00 0.00 30 999.4
20260504173016 72 235 10.4 14.8 0.00 0.00 0.00 31 999.5
20260504172556 72 228 7.8 23.5 0.00 0.00 0.00 32 999.6
20260504172015 72 233 11.3 23.5 0.00 0.00 0.00 30 999.7
20260504171537 72 232 9.6 19.1 0.00 0.00 0.00 31 999.7
20260504171015 72 227 10.4 19.1 0.00 0.00 0.00 30 1000.0
20260504170535 72 211 10.4 18.2 0.00 0.00 0.00 31 999.9
20260504151015 65 223 7.8 19.1 0.00 0.00 0.00 49 1001.2
20260504150515 65 226 8.7 19.1 0.00 0.00 0.00 51 1001.2
20260504141015 60 217 5.2 11.3 0.00 0.00 0.00 62 1001.9
20260504140515 60 218 4.3 9.6 0.00 0.00 0.00 63 1001.9
20260504130515 55 235 7.0 12.2 0.00 0.00 0.00 72 1002.4
20260504130155 54 243 5.2 12.2 0.00 0.00 0.00 73 1002.5
20260504110557 45 209 1.7 4.3 0.00 0.00 0.00 88 1002.1